Location: Hac?musa Deresi
(39.1694°N, 32.2508°E)
Time: 10:54:00
(UTC+00:00)

BREEZE-M DEB (TANK) - Pass Details

Date: 22 April 2026
Orbit: 316 x 13396 km, 49.6° (Epoch: 19 May)

Event Time Altitude Azimuth Distance (km) Brightness Sun altitude
Rises 19:02:29 0° 312° (NW) 2,089 7.2 -25.4°
Reaches altitude 10° 19:04:03 10° 325° (NW) 1,390 5.9 -25.6°
Enters shadow 19:05:40 27° 1° (N) 926 4.3 -25.9°
